Regional Weather Roundup
Issued by NWS Jackson, KY

Home | Current Version | Previous Version | Text Only | Print | Product List | Glossary Off
Versions: 1 2 3 4 5 6 7 8 9 10 11 12 13 14 15 16 17 18 19 20 21 22 23 24 25 26 27 28 29 30 31 32 33 34 35 36 37 38 39 40 41 42 43 44 45 46 47 48 49 50

208
ASUS43 KJKL 121010
RWRJKL

EAST KENTUCKY HOURLY WEATHER ROUNDUP
NATIONAL WEATHER SERVICE JACKSON KY
500 AM EST FRI FEB 12 2016

NOTE: "FAIR" INDICATES FEW OR NO CLOUDS BELOW 12,000 FEET WITH
NO SIGNIFICANT WEATHER AND/OR OBSTRUCTIONS TO VISIBILITY.

* THESE REPORTS ARE NOT UNDER NWS QUALITY CONTROL AND MAY NOT
  REPORT WEATHER SUCH AS PRECIPITATION AND FOG.

KYZ079-080-083-085-087-088-110-112-115-119-120-121100
...EASTERN KENTUCKY...

CITY           SKY/WX    TMP DP  RH WIND       PRES   REMARKS
JACKSON        CLOUDY    21   8  57 NE3       30.15F
LONDON         MOCLDY    24  11  57 E3        30.15F
SOMERSET*      CLOUDY    27  14  59 CALM      30.18S
MONTICELLO*    CLOUDY    27  17  66 W6        30.17S WCI  20
WILLIAMSBURG*  CLOUDY    27  16  63 CALM      30.15S
MIDDLESBORO*   CLOUDY    28  22  79 CALM      30.15F
HARLAN APT*    CLOUDY    27  18  69 NE3       30.13F
HAZARD APT*    CLOUDY    19  10  68 CALM      30.16
BLACK MTN*       N/A     19  18  93 S7          N/A  WCI  10
BIG SANDY*     CLOUDY    20  10  66 CALM      30.18S
MOREHEAD APT*  CLOUDY    19   7  58 E5        30.21F WCI  13
$$

KYZ035-036-041-042-044-050-067-078-099-121100
...CENTRAL KENTUCKY...

CITY           SKY/WX    TMP DP  RH WIND       PRES   REMARKS
MT STERLING*   CLOUDY    23  12  63 E7        30.18F WCI  15
DANVILLE*      CLOUDY    25  18  74 CALM      30.17F
RICHMOND*      CLOUDY    25  14  63 E6        30.15F WCI  18
LEXINGTON      CLOUDY    24  13  62 E6        30.16F WCI  17
FRANKFORT      CLOUDY    24  13  62 E3        30.17F
$$

KYZ091>093-OHZ055-061-077-WVZ005-015-034-035-042-121100
...SOUTHERN OHIO/WEST VIRGINIA...

CITY           SKY/WX    TMP DP  RH WIND       PRES   REMARKS
COVINGTON      CLOUDY    20   9  62 S5        30.18F WCI  13
COLUMBUS       CLOUDY     8   3  80 CALM      30.21F
DAYTON         CLOUDY    14   9  80 S5        30.18F WCI   6
WILMINGTON     CLOUDY     6   2  83 CALM      30.18F
HUNTINGTON     CLOUDY    17   6  62 E3        30.21F
CHARLESTON       N/A     12   8  84 CALM      30.21F
PINEVILLE*       N/A     16   9  76 MISG      30.20S
BECKLEY        MOCLDY    13   4  67 CALM      30.09F
$$

VAZ002-007-008-TNZ017-027-036-066-071-121100
...SOUTHWEST VIRGINIA/EAST TENNESSEE...

CITY           SKY/WX    TMP DP  RH WIND       PRES   REMARKS
BRISTOL        CLOUDY    27  21  78 CALM      30.13F
KNOXVILLE      CLOUDY    31  20  63 NE5       30.13F WCI  26
OAK RIDGE      CLOUDY    32  18  56 E3        30.16F
CROSSVILLE     CLOUDY    30  22  72 VRB3      30.10S
NASHVILLE      CLOUDY    34  22  61 N6        30.18R WCI  29
$$

...KEY TO REMARKS...
VSB - VISIBILITY IN MILES
WCI - WIND CHILL INDEX
HX  - HEAT INDEX

$$




USA.gov is the U.S. government's official web portal to all federal, state and local government web resources and services.